Regional Weather Roundup
Issued by NWS Lake Charles, LA

Home | Current Version | Previous Version | Text Only | Print | Product List | Glossary On
Versions: 1 2 3 4 5 6 7 8 9 10 11 12 13 14 15 16 17 18 19 20 21 22 23 24 25 26 27
000
ASUS44 KLCH 241210
RWRLCH
RWRLCH
REGIONAL WEATHER ROUNDUP
NATIONAL WEATHER SERVICE LAKE CHARLES LA
700 AM CDT THU APR 24 2014

Note: "fair" indicates few or no clouds below 12,000 feet with no
significant weather and/or obstructions to visibility.


ACROSS SOUTHEAST TEXAS

CITY           SKY/WX    TMP DP  RH WIND       PRES   REMARKS
BEAUMONT       CLOUDY    68  66  93 S5        29.88R
BEAUMONT CITY  CLOUDY    67  66  99 SE3       29.88R
ORANGE         PTSUNNY   70  67  91 S7        29.90R
JASPER         MOCLDY    65  64  94 CALM      29.92R FOG
$$

ACROSS CENTRAL LOUISIANA

CITY           SKY/WX    TMP DP  RH WIND       PRES   REMARKS
LEESVILLE      CLOUDY    65  65 100 CALM      29.91R FOG
FULLERTON      FOG       67  64  90 CALM      29.90R VSB 1/4
ALEXANDRIA INT CLOUDY    66  62  87 SW3       29.90R FOG
ESLER FIELD    CLOUDY    66  62  87 CALM      29.92R FOG
DERIDDER       FOG       65  64  96 CALM      29.93R VSB 1/4
OAKDALE        FOG       64  63  97 CALM      29.91R VSB<1/4
OPELOUSAS      FOG       63  63 100 CALM      29.91R VSB<1/4
$$

ACROSS SOUTHWEST AND SOUTH CENTRAL LOUISIANA

CITY           SKY/WX    TMP DP  RH WIND       PRES   REMARKS
SULPHUR        CLOUDY    69  68  95 S3        29.90R
LAKE CHARLES   PTCLDY    67  66  97 S3        29.89R
CHENNAULT INT  MOCLDY    64  64 100 CALM      29.89R FOG
CAMERON PHI    MOSUNNY   72  66  83 S12       29.89R
DEQUINCY       PTSUNNY   62  62  99 CALM      29.90R FOG
JENNINGS       PTSUNNY   65  65 100 CALM      29.90R FOG
LAFAYETTE      FOG      N/A N/A N/A CALM      29.90R VSB 1/4
NEW IBERIA       N/A     62  61  96 E3        29.90S VSB<1/4
ABBEVILLE      FOG      N/A N/A N/A CALM      29.90S VSB<1/4
PATTERSON      MOCLDY    61  61 100 CALM      29.95R VSB 1/4
SALT POINT       N/A     68  66  93 CALM      29.91R
$$

SELECTED SITES ACROSS THE REGION

CITY           SKY/WX    TMP DP  RH WIND       PRES   REMARKS
HOUSTON BUSH   CLOUDY    70  65  84 S7        29.86R
HOUSTON HOBBY  MOCLDY    70  65  84 S6        29.85R
GALVESTON      MOCLDY    70  69  97 S13       29.87R
COLLEGE STAT   PTCLDY    67  64  90 S9        29.83S
CONROE         CLOUDY    67  65  93 SE3       29.87R
HUNTSVILLE     CLOUDY    68  64  87 VRB5      29.86R
LUFKIN         CLOUDY    69  64  84 SE5       29.87R
SHREVEPORT     CLOUDY    64  62  93 S5        29.86S FOG
MONROE         PTCLDY    55  51  86 CALM      29.92R
NATCHEZ MS     CLOUDY    55  54  94 CALM      29.93R
BATON ROUGE    FOG       64  61  90 NE3       29.93R VSB 1
N.O. INTL ARPT PTCLDY    64  63  96 CALM      29.93R FOG
SLIDELL        FOG       56  55  97 CALM      29.93R VSB<1/4
$$

MARINE REPORTS

STATION/POSITION TIME  TEMP    WIND        PRES    VSBY  WAVE
                       AIR SEA DIR/SP/G                  HT/PER
                 (UTC) (F)     (DEG/KT/KT) (MB)    (MI)  (FT/S)
BUOY 30 S HIGH I 1200   70 69  150/ 12/ 14 1010.6R         2/ 4
SEA RIM ST PARK  1200   70     180/  9/ 11 1012.3R
PORT ARTHUR      1200      71  170/  5/ 10 1011.6R
SABINE PASS N    1200   70 71  200/  6/ 10 1011.7R
TEXAS POINT      1200   70 72  180/  9/ 12 1012.0R
CALCASIEU PASS   1200   71 72  200/ 12/ 15 1012.7R
LK CHARLES BEACH 1200   68 72              1012.7R
MARSH ISLAND     1100   71     200/  5/  9   N/A
FRESH WATER LOCK 1200   72 74  170/ 12/ 15 1012.0S
AMERADA PASS     1200   67 65   CALM  /  2 1012.9R
$$



USA.gov is the U.S. government's official web portal to all federal, state and local government web resources and services.